Location: *
(40.1825°N, 79.4645°W)
Time: 22:35:06
(UTC+00:00)

Daily predictions for brighter satellites

Satellite Brightness Start Highest point End
(mag) Time Altitude Azimuth Time Altitude Azimuth Time Altitude Azimuth
SJ-11-01 4.3 22:13:57 10° SSE 22:18:35 82° ENE 22:23:16 10° N
Cosmos 2151 3.1 22:15:49 10° N 22:20:06 85° W 22:24:20 10° S
CZ-2D R/B 3.1 22:17:13 10° SSE 22:20:53 83° ENE 22:24:33 10° N
Lacrosse 4 Rocket 2.4 22:18:11 10° N 22:21:53 27° NE 22:25:31 10° ESE
Cosmos 2058 Rocket 3.6 22:18:55 10° SSW 22:23:18 64° W 22:27:42 10° N
Cosmos 2251 Rocket 4.4 22:18:46 10° N 22:23:21 28° ENE 22:27:55 10° ESE
Lacrosse 5 2.6 22:19:46 10° SSW 22:24:23 37° SE 22:29:01 10° ENE
Cosmos 1812 3.2 22:21:42 10° SSE 22:25:04 36° E 22:28:28 10° NNE
COSMO-SKYMED 1 4.1 22:23:03 10° NE 22:25:58 17° E 22:28:51 10° SE
ATLAS 2AS CENTAUR R/B 4.0 22:21:33 10° NNW 22:26:20 19° NNE 22:30:57 10° ENE
[s.n.58448] 2.3 22:23:52 10° WNW 22:26:28 69° NNE 22:29:03 10° E
Tiangong 1.0 22:26:15 10° WSW 22:28:00 14° SW 22:29:44 10° S
SL-08 RB Rocket 4.4 22:23:58 10° S 22:28:21 59° W 22:32:48 10° NNW
ERS-2 2.7 22:25:33 10° S 22:28:23 48° WSW 22:31:14 10° NNW
[s.n.58449] 2.2 22:25:53 10° WNW 22:28:24 70° NNE 22:30:55 10° E
Cosmos 2221 4.4 22:28:15 10° ESE 22:29:34 11° E 22:30:53 10° ENE
[s.n.58459] 2.3 22:27:57 10° WNW 22:30:35 73° NNE 22:33:11 10° ESE
[s.n.58458] 2.3 22:28:42 10° WNW 22:31:19 74° NNE 22:33:55 10° ESE
[s.n.58447] 2.3 22:29:27 10° WNW 22:32:02 74° NNE 22:34:37 10° ESE
[s.n.58456] 2.3 22:29:33 10° WNW 22:32:10 74° NNE 22:34:47 10° ESE
CZ-2C R/B 2.5 22:28:58 10° SSE 22:32:30 86° ENE 22:36:07 10° NNW
[s.n.58457] 2.3 22:30:20 10° WNW 22:32:58 75° NNE 22:35:35 10° ESE
USA 307 3.0 22:29:41 10° NW 22:33:22 41° NE 22:36:56 10° ESE
[s.n.58455] 2.3 22:31:09 10° WNW 22:33:46 76° NNE 22:36:23 10° ESE
[s.n.58454] 2.3 22:31:56 10° WNW 22:34:34 77° NNE 22:37:11 10° ESE
[s.n.58453] 2.3 22:32:45 10° WNW 22:35:23 78° NNE 22:38:00 10° ESE
[s.n.58452] 2.3 22:33:30 10° WNW 22:36:07 79° NNE 22:38:45 10° ESE
[s.n.58451] 2.3 22:34:18 10° WNW 22:36:57 80° NNE 22:39:34 10° ESE
[s.n.58450] 2.3 22:35:06 10° WNW 22:37:43 80° NNE 22:40:21 10° ESE
Cosmos 1437 Rocket 4.3 22:35:50 10° NNW 22:39:18 38° W 22:42:49 10° SSW
[s.n.58446] 2.3 22:37:29 10° WNW 22:40:07 83° NNE 22:42:41 11° ESE
[s.n.58445] 2.3 22:38:19 10° WNW 22:40:58 84° NNE 22:43:29 11° ESE
AQUARIUS 4.2 22:37:09 10° SSE 22:41:30 57° ENE 22:45:54 10° N
[s.n.58444] 2.3 22:39:07 10° WNW 22:41:46 85° N 22:44:15 11° ESE
[s.n.58443] 2.3 22:39:53 10° WNW 22:42:33 86° NNE 22:45:00 11° ESE
[s.n.58442] 2.3 22:40:46 10° WNW 22:43:25 87° N 22:45:50 12° ESE
[s.n.58441] 2.3 22:41:36 10° WNW 22:44:15 88° NNE 22:46:38 12° ESE
[s.n.58440] 2.3 22:42:21 10° WNW 22:45:01 89° NNE 22:47:21 12° ESE
Cosmos 1818 3.6 22:39:38 10° SSW 22:45:01 70° ESE 22:50:27 10° NE
[s.n.58439] 2.3 22:43:11 10° WNW 22:45:50 90° NW 22:48:10 13° ESE
[s.n.58437] 2.3 22:43:58 10° WNW 22:46:38 89° SSW 22:48:55 13° ESE
Meteor 2-2 Rocket 4.4 22:41:19 10° S 22:46:51 53° E 22:52:31 10° NNE
[s.n.58438] 2.4 22:44:46 10° WNW 22:47:26 88° SW 22:49:41 13° ESE
Cosmos 1933 4.0 22:47:27 10° SSE 22:50:59 31° E 22:54:33 10° NNE
Meteor 1-25 Rocket 4.3 22:45:40 10° N 22:51:09 51° ENE 22:56:33 10° SSE
Cosmos 1666 3.2 22:49:17 10° NNW 22:52:46 57° W 22:56:14 10° S
ATLAS CENTAUR R/B 3.0 22:49:04 10° NW 22:53:43 61° NE 23:02:47 10° SE
USA 306 1.1 22:53:59 10° NW 22:56:07 76° SW 22:57:49 13° SE
Cosmos 2026 Rocket 4.2 22:53:06 10° SSE 22:59:03 50° E 23:05:08 10° NNE
Meteor 1-31 Rocket 2.8 22:56:39 10° S 23:00:19 76° WSW 23:04:03 10° NNW
Cosmos 1844 Rocket 2.9 22:56:59 10° S 23:02:19 50° ESE 23:07:07 13° NE
Cosmos 2263 Rocket 3.7 22:57:34 10° WSW 23:02:32 33° WNW 23:07:33 10° N
USA 305 2.6 22:59:00 10° NW 23:02:48 57° NE 23:05:44 15° ESE
CORIOLIS 4.5 22:58:38 10° S 23:03:56 70° WSW 23:09:19 10° NNW
Cosmos 1420 Rocket 4.4 23:00:22 10° S 23:05:15 42° ESE 23:09:16 15° NE
USA 234 3.3 22:59:38 13° NE 23:05:40 88° NW 23:12:12 10° SW
Cosmos 2195 Rocket 4.5 22:59:57 10° S 23:06:12 69° E 23:12:27 10° NNE
Cosmos 1140 Rocket 3.4 23:05:33 10° NNW 23:10:45 89° WSW 23:15:53 10° SSE
ADEOS 4.1 23:06:26 10° SE 23:11:08 36° ENE 23:15:51 10° N
Cosmos 1624 Rocket 4.3 23:08:19 10° S 23:13:15 45° ESE 23:16:39 19° NE
SKYMED 2 3.6 23:09:59 10° NNE 23:14:17 59° E 23:18:33 10° S
Cosmos 1092 Rocket 3.9 23:10:46 10° S 23:16:51 72° E 23:22:58 10° NNE
Meteor 1-20 Rocket 4.4 23:12:59 10° NNW 23:18:35 77° W 23:24:15 10° S
CBERS 1 LM4 rocket 4.3 23:14:39 10° SSE 23:19:25 65° ENE 23:24:07 10° N
Cosmos 1782 2.6 23:16:01 10° S 23:19:54 88° E 23:23:50 10° N
RESURS DK-1 4.4 23:18:13 10° N 23:19:08 14° NNE 23:19:08 14° NNE
Cosmos 192 4.2 23:16:44 10° SSW 23:21:36 77° ESE 23:25:33 16° NNE
SL-08 R/B 3.3 23:22:27 18° NNE 23:25:43 54° E 23:30:16 10° S
Cosmos 1603 3.6 23:23:01 10° NNW 23:28:44 89° ENE 23:34:22 10° SSE
Helios 1A 3.6 23:25:12 10° N 23:29:17 56° WNW 23:33:19 10° SSW
SL-8 R/B 3.7 23:25:03 10° WNW 23:29:51 81° SSW 23:32:49 23° SE
ISS -1.7 23:30:17 10° WNW 23:33:12 28° SW 23:36:07 10° SSE
JB-3 4.1 23:32:56 31° NNE 23:34:40 75° ESE 23:38:26 10° S
CZ-4B R/B 3.7 23:30:30 10° S 23:35:34 70° WSW 23:40:32 10° NNW
H-2A R/B 3.7 23:35:02 10° SW 23:37:30 19° S 23:42:03 10° SE
Cosmos 676 Rocket 4.3 23:36:05 10° N 23:41:06 41° ENE 23:41:13 41° ENE
SL-4 R/B 3.8 23:42:18 10° S 23:43:13 15° SSE 23:43:13 15° SSE
NOAA 6 4.2 23:40:28 10° S 23:45:36 74° WSW 23:50:44 10° NNW
Cosmos 220 Rocket 3.8 23:48:48 10° NNW 23:53:07 87° ENE 23:54:30 42° SSE
